Regional Weather Roundup
Issued by NWS Cleveland, OH

Home | Current Version | Previous Version | Text Only | Print | Product List | Glossary Off
Versions: 1 2 3 4 5 6 7 8 9 10 11 12 13 14 15 16 17 18 19 20 21 22 23 24 25 26 27 28 29 30 31 32 33 34 35 36 37 38 39 40 41 42 43 44 45 46 47 48 49 50

000
ASUS41 KCLE 050602
RWRCLE
OHIO REGIONAL WEATHER ROUNDUP
NATIONAL WEATHER SERVICE CLEVELAND, OH
100 AM EST THU MAR 05 2015

NOTE: "FAIR" INDICATES FEW OR NO CLOUDS BELOW 12,000 FEET WITH NO
SIGNIFICANT WEATHER AND/OR OBSTRUCTIONS TO VISIBILITY.

OHZ001>008-015>018-024>027-034-035-043-044-050700-
   NORTHWEST OHIO

CITY           SKY/WX    TMP DP  RH WIND       PRES   REMARKS
DEFIANCE       CLOUDY    18   4  54 N10G18    30.28R WCI   6
FINDLAY        CLOUDY    19   4  51 NW13      30.25R WCI   6
TOLEDO EXPRESS CLOUDY    16   0  49 NW12G22   30.28R WCI   3
TOLEDO EXEC    CLOUDY    17   0  47 NW20G25   30.28R WCI   1
LIMA           CLOUDY    19   5  54 N15       30.24R WCI   5
$$

OHZ009>014-019>023-028>033-038-089-050700-
   NORTHEAST OHIO

CITY           SKY/WX    TMP DP  RH WIND       PRES   REMARKS
CLE-HOPKINS    CLOUDY    19   6  57 NW20G30   30.23R WCI   3
CLE-LAKEFRONT  CLOUDY    20   9  62 NW24G31   30.21S WCI   3
CUY CO. ARPT   NOT AVBL
LORAIN-ELYRIA  CLOUDY    19   3  49 N17G25    30.21S WCI   4
ASHTABULA      CLOUDY    19   6  57 N15G25    30.16S WCI   5
AKRON-CANTON   CLOUDY    22   8  55 NW17G25   30.13S WCI   8
WOOSTER        CLOUDY    19   8  62 NW14      30.17S WCI   6
MANSFIELD      CLOUDY    18   6  59 NW15      30.17S WCI   4
YOUNGSTOWN     CLOUDY    22  12  65 NW22      30.10S WCI   6
$$

OHZ042-051>053-060>062-070>072-077>081-050700-
  SOUTHWEST OHIO

CITY           SKY/WX    TMP DP  RH WIND       PRES   REMARKS
CINC-COVINGTON CLOUDY    22  12  65 N12       30.21S WCI  10
CINC-LUNKEN    CLOUDY    23  13  65 N14G20    30.24F WCI  11
HAMILTON       CLOUDY    23  13  65 N13       30.25F WCI  11
DAYTON         CLOUDY    20   8  60 N17       30.22S WCI   5
WRIGHT-PAT AFB CLOUDY    20   8  57 N15       30.22S WCI   7
DAYTON GENERAL CLOUDY    21   7  54 N14G23    30.20F WCI   8
WILMINGTON     CLOUDY    21   8  57 N16G23    30.19S WCI   7
$$

OHZ036-037-039>041-045>050-054>059-063>069-073>076-082>088-050700-
  CENTRAL AND SOUTHEAST OHIO

CITY           SKY/WX    TMP DP  RH WIND       PRES   REMARKS
COLUMBUS       CLOUDY    21  10  62 N14       30.19S WCI   8
OSU AIRPORT    CLOUDY    20   9  62 N15       30.20R WCI   6
BOLTON FIELD   CLOUDY   N/A N/A N/A NW15G21   30.21R
RICKENBACK AFB NOT AVBL
NEWARK         CLOUDY    23  12  62 NW12      30.17S WCI  12
MARION         CLOUDY    19   5  54 N13       30.21S WCI   6
LANCASTER      CLOUDY    24  14  65 N15       30.18S WCI  11
ZANESVILLE     CLOUDY    25  13  60 NW9       30.14F WCI  15
NEW PHILLY     CLOUDY    27  14  58 N12       30.15R WCI  17
$$


USA.gov is the U.S. government's official web portal to all federal, state and local government web resources and services.